Time,TemperatureF,DewpointF,PressureIn,WindDirection,WindDirectionDegrees,WindSpeedMPH,WindSpeedGustMPH,Humidity,HourlyPrecipIn,Conditions,Clouds,dailyrainin,SolarRadiationWatts/m^2,SoftwareType,DateUTC
2013-04-19 00:03:00,69.0,57.0,-100.00,SE,139,6.0,14.0,65,0.00,,,0.00,0.000000,,2013-04-19 04:03:00,
2013-04-19 00:33:00,69.0,58.0,-100.00,SE,144,7.0,16.0,68,0.00,,,-99.99,0.000000,,2013-04-19 04:33:00,
2013-04-19 00:43:00,69.0,58.0,-100.00,SE,144,7.0,16.0,68,0.00,,,-99.99,0.000000,,2013-04-19 04:43:00,
2013-04-19 00:52:00,69.0,58.0,-100.00,SE,144,7.0,16.0,68,0.00,,,-99.99,0.000000,,2013-04-19 04:52:00,
2013-04-19 01:03:00,69.0,58.0,-100.00,SE,144,7.0,16.0,68,0.00,,,-99.99,0.000000,,2013-04-19 05:03:00,
2013-04-19 01:32:00,69.0,57.0,-100.00,SSE,164,9.0,18.0,66,0.00,,,0.00,0.000000,,2013-04-19 05:32:00,
2013-04-19 01:42:00,69.0,57.0,-100.00,SSE,164,9.0,18.0,66,0.00,,,0.00,0.000000,,2013-04-19 05:42:00,
2013-04-19 01:52:00,69.0,57.0,-100.00,SSE,164,9.0,18.0,66,0.00,,,0.00,0.000000,,2013-04-19 05:52:00,
2013-04-19 02:02:00,69.0,57.0,-100.00,SSE,164,9.0,18.0,66,0.00,,,0.00,0.000000,,2013-04-19 06:02:00,
2013-04-19 02:32:00,69.0,58.0,-100.00,SSE,168,12.0,26.0,69,0.00,,,0.00,0.000000,,2013-04-19 06:32:00,
2013-04-19 02:42:00,69.0,58.0,-100.00,SSE,168,12.0,26.0,69,0.00,,,0.00,0.000000,,2013-04-19 06:42:00,
2013-04-19 02:53:00,69.0,58.0,-100.00,SSE,168,12.0,26.0,69,0.00,,,0.00,0.000000,,2013-04-19 06:53:00,
2013-04-19 03:02:00,69.0,58.0,-100.00,SSE,168,12.0,26.0,69,0.00,,,0.00,0.000000,,2013-04-19 07:02:00,
2013-04-19 04:33:00,69.0,59.0,-100.00,SSE,162,12.0,24.0,71,-99.99,,,0.00,0.000000,,2013-04-19 08:33:00,
2013-04-19 04:42:00,69.0,59.0,-100.00,SSE,162,12.0,24.0,71,-99.99,,,0.00,0.000000,,2013-04-19 08:42:00,
2013-04-19 04:52:00,69.0,59.0,-100.00,SSE,162,12.0,24.0,71,-99.99,,,0.00,0.000000,,2013-04-19 08:52:00,
2013-04-19 05:01:00,69.0,59.0,-100.00,SSE,162,12.0,24.0,71,-99.99,,,0.00,0.000000,,2013-04-19 09:01:00,
2013-04-19 05:33:00,68.0,58.0,-100.00,South,177,10.0,26.0,71,0.00,,,0.00,0.000000,,2013-04-19 09:33:00,
2013-04-19 05:43:00,68.0,58.0,-100.00,South,177,10.0,26.0,71,0.00,,,0.00,0.000000,,2013-04-19 09:43:00,
2013-04-19 05:52:00,68.0,58.0,-100.00,South,177,10.0,26.0,71,0.00,,,0.00,0.000000,,2013-04-19 09:52:00,
2013-04-19 06:02:00,68.0,58.0,-100.00,South,177,10.0,26.0,71,0.00,,,0.00,0.000000,,2013-04-19 10:02:00,
2013-04-19 06:33:00,68.0,58.0,-100.00,South,173,11.0,25.0,70,0.00,,,0.00,0.000000,,2013-04-19 10:33:00,
2013-04-19 06:42:00,68.0,58.0,-100.00,South,173,11.0,25.0,70,0.00,,,0.00,0.000000,,2013-04-19 10:42:00,
2013-04-19 06:52:00,68.0,58.0,-100.00,South,173,11.0,25.0,70,0.00,,,0.00,0.000000,,2013-04-19 10:52:00,
2013-04-19 07:03:00,68.0,58.0,-100.00,South,173,11.0,25.0,70,0.00,,,0.00,0.000000,,2013-04-19 11:03:00,
2013-04-19 07:32:00,67.0,58.0,-100.00,South,170,8.0,19.0,74,0.00,,,0.00,0.000000,,2013-04-19 11:32:00,
2013-04-19 07:43:00,67.0,58.0,-100.00,South,170,8.0,19.0,74,0.00,,,0.00,0.000000,,2013-04-19 11:43:00,
2013-04-19 07:52:00,67.0,58.0,-100.00,South,170,8.0,19.0,74,0.00,,,0.00,0.000000,,2013-04-19 11:52:00,
2013-04-19 08:03:00,67.0,58.0,-100.00,South,170,8.0,19.0,74,0.00,,,0.00,0.000000,,2013-04-19 12:03:00,
2013-04-19 08:32:00,65.0,60.0,-100.00,South,189,8.0,21.0,84,0.09,,,0.09,2.000000,,2013-04-19 12:32:00,
2013-04-19 08:42:00,65.0,60.0,-100.00,South,189,8.0,21.0,84,0.09,,,0.09,2.000000,,2013-04-19 12:42:00,
2013-04-19 08:53:00,65.0,60.0,-100.00,South,189,8.0,21.0,84,0.09,,,0.09,2.000000,,2013-04-19 12:53:00,
2013-04-19 09:01:00,65.0,60.0,-100.00,South,189,8.0,21.0,84,0.09,,,0.09,2.000000,,2013-04-19 13:01:00,
2013-04-19 09:32:00,64.0,61.0,-100.00,SSE,165,9.0,18.0,89,0.18,,,0.27,23.000000,,2013-04-19 13:32:00,
2013-04-19 09:42:00,64.0,61.0,-100.00,SSE,165,9.0,18.0,89,0.18,,,0.27,23.000000,,2013-04-19 13:42:00,
2013-04-19 09:52:00,64.0,61.0,-100.00,SSE,165,9.0,18.0,89,0.18,,,0.27,23.000000,,2013-04-19 13:52:00,
2013-04-19 10:02:00,64.0,61.0,-100.00,SSE,165,9.0,18.0,89,0.18,,,0.27,23.000000,,2013-04-19 14:02:00,
2013-04-19 10:32:00,65.0,63.0,-100.00,SSW,197,10.0,19.0,92,0.15,,,0.42,56.000000,,2013-04-19 14:32:00,
2013-04-19 10:43:00,65.0,63.0,-100.00,SSW,197,10.0,19.0,92,0.15,,,0.42,56.000000,,2013-04-19 14:43:00,
2013-04-19 10:52:00,65.0,63.0,-100.00,SSW,197,10.0,19.0,92,0.15,,,0.42,56.000000,,2013-04-19 14:52:00,
2013-04-19 11:02:00,65.0,63.0,-100.00,SSW,197,10.0,19.0,92,0.15,,,0.42,56.000000,,2013-04-19 15:02:00,
2013-04-19 11:33:00,63.0,61.0,-100.00,West,270,8.0,19.0,92,0.07,,,0.49,88.000000,,2013-04-19 15:33:00,
2013-04-19 11:43:00,63.0,61.0,-100.00,West,270,8.0,19.0,92,0.07,,,0.49,88.000000,,2013-04-19 15:43:00,
2013-04-19 11:52:00,63.0,61.0,-100.00,West,270,8.0,19.0,92,0.07,,,0.49,88.000000,,2013-04-19 15:52:00,
2013-04-19 12:03:00,63.0,61.0,-100.00,West,270,8.0,19.0,92,0.07,,,0.49,88.000000,,2013-04-19 16:03:00,
2013-04-19 12:33:00,57.0,55.0,-100.00,NW,312,8.0,16.0,93,0.17,,,0.66,52.000000,,2013-04-19 16:33:00,
2013-04-19 12:43:00,57.0,55.0,-100.00,NW,312,8.0,16.0,93,0.17,,,0.66,52.000000,,2013-04-19 16:43:00,
2013-04-19 12:53:00,57.0,55.0,-100.00,NW,312,8.0,16.0,93,0.17,,,0.66,52.000000,,2013-04-19 16:53:00,
2013-04-19 13:02:00,57.0,55.0,-100.00,NW,312,8.0,16.0,93,0.17,,,0.66,52.000000,,2013-04-19 17:02:00,
2013-04-19 13:33:00,52.0,50.0,-100.00,NNW,333,9.0,16.0,92,0.01,,,0.67,77.000000,,2013-04-19 17:33:00,
2013-04-19 13:43:00,52.0,50.0,-100.00,NNW,333,9.0,16.0,92,0.01,,,0.67,77.000000,,2013-04-19 17:43:00,
2013-04-19 13:52:00,52.0,50.0,-100.00,NNW,333,9.0,16.0,92,0.01,,,0.67,77.000000,,2013-04-19 17:52:00,
2013-04-19 14:02:00,52.0,50.0,-100.00,NNW,333,9.0,16.0,92,0.01,,,0.67,77.000000,,2013-04-19 18:02:00,
2013-04-19 14:33:00,51.0,49.0,-100.00,NW,315,9.0,14.0,94,0.01,,,0.68,65.000000,,2013-04-19 18:33:00,
2013-04-19 14:43:00,51.0,49.0,-100.00,NW,315,9.0,14.0,94,0.01,,,0.68,65.000000,,2013-04-19 18:43:00,
2013-04-19 14:52:00,51.0,49.0,-100.00,NW,315,9.0,14.0,94,0.01,,,0.68,65.000000,,2013-04-19 18:52:00,
2013-04-19 15:02:00,51.0,49.0,-100.00,NW,315,9.0,14.0,94,0.01,,,0.68,65.000000,,2013-04-19 19:02:00,
2013-04-19 15:32:00,52.0,50.0,-100.00,NW,310,7.0,14.0,93,0.00,,,0.68,166.000000,,2013-04-19 19:32:00,
2013-04-19 15:42:00,52.0,50.0,-100.00,NW,310,7.0,14.0,93,0.00,,,0.68,166.000000,,2013-04-19 19:42:00,
2013-04-19 15:52:00,52.0,50.0,-100.00,NW,310,7.0,14.0,93,0.00,,,0.68,166.000000,,2013-04-19 19:52:00,
2013-04-19 16:02:00,52.0,50.0,-100.00,NW,310,7.0,14.0,93,0.00,,,0.68,166.000000,,2013-04-19 20:02:00,
2013-04-19 16:32:00,53.0,46.0,-100.00,NW,325,10.0,14.0,76,0.00,,,0.68,453.000000,,2013-04-19 20:32:00,
2013-04-19 16:42:00,53.0,46.0,-100.00,NW,325,10.0,14.0,76,0.00,,,0.68,453.000000,,2013-04-19 20:42:00,
2013-04-19 16:52:00,53.0,46.0,-100.00,NW,325,10.0,14.0,76,0.00,,,0.68,453.000000,,2013-04-19 20:52:00,
2013-04-19 17:01:00,53.0,46.0,-100.00,NW,325,10.0,14.0,76,0.00,,,0.68,453.000000,,2013-04-19 21:01:00,
2013-04-19 18:33:00,51.0,42.0,-100.00,NNW,328,11.0,16.0,71,-99.99,,,0.68,288.000000,,2013-04-19 22:33:00,
2013-04-19 18:42:00,51.0,42.0,-100.00,NNW,328,11.0,16.0,71,-99.99,,,0.68,288.000000,,2013-04-19 22:42:00,
2013-04-19 18:52:00,51.0,42.0,-100.00,NNW,328,11.0,16.0,71,-99.99,,,0.68,288.000000,,2013-04-19 22:52:00,
2013-04-19 19:03:00,51.0,42.0,-100.00,NNW,328,11.0,16.0,71,-99.99,,,0.68,288.000000,,2013-04-19 23:03:00,
2013-04-19 19:32:00,49.0,39.0,-100.00,NW,308,11.0,17.0,69,0.00,,,0.68,184.000000,,2013-04-19 23:32:00,
2013-04-19 19:42:00,49.0,39.0,-100.00,NW,308,11.0,17.0,69,0.00,,,0.68,184.000000,,2013-04-19 23:42:00,
2013-04-19 19:53:00,49.0,39.0,-100.00,NW,308,11.0,17.0,69,0.00,,,0.68,184.000000,,2013-04-19 23:53:00,
2013-04-19 20:02:00,49.0,39.0,-100.00,NW,308,11.0,17.0,69,0.00,,,0.68,184.000000,,2013-04-20 00:02:00,
2013-04-19 21:32:00,46.0,36.0,-100.00,NW,318,12.0,18.0,69,-99.99,,,0.68,4.000000,,2013-04-20 01:32:00,
2013-04-19 21:42:00,46.0,36.0,-100.00,NW,318,12.0,18.0,69,-99.99,,,0.68,4.000000,,2013-04-20 01:42:00,
2013-04-19 21:52:00,46.0,36.0,-100.00,NW,318,12.0,18.0,69,-99.99,,,0.68,4.000000,,2013-04-20 01:52:00,
2013-04-19 22:02:00,46.0,36.0,-100.00,NW,318,12.0,18.0,69,-99.99,,,0.68,4.000000,,2013-04-20 02:02:00,
2013-04-19 22:32:00,45.0,34.0,-100.00,NW,313,9.0,19.0,66,0.00,,,0.68,0.000000,,2013-04-20 02:32:00,
2013-04-19 22:42:00,45.0,34.0,-100.00,NW,313,9.0,19.0,66,0.00,,,0.68,0.000000,,2013-04-20 02:42:00,
2013-04-19 22:52:00,45.0,34.0,-100.00,NW,313,9.0,19.0,66,0.00,,,0.68,0.000000,,2013-04-20 02:52:00,
2013-04-19 23:01:00,45.0,34.0,-100.00,NW,313,9.0,19.0,66,0.00,,,0.68,0.000000,,2013-04-20 03:01:00,
2013-04-19 23:33:00,44.0,33.0,-100.00,NW,318,10.0,16.0,65,0.00,,,0.68,0.000000,,2013-04-20 03:33:00,
2013-04-19 23:43:00,44.0,33.0,-100.00,NW,318,10.0,16.0,65,0.00,,,0.68,0.000000,,2013-04-20 03:43:00,
2013-04-19 23:53:00,44.0,33.0,-100.00,NW,318,10.0,16.0,65,0.00,,,0.68,0.000000,,2013-04-20 03:53:00,